Find Starlink 31229

NORAD ID: 58986 Int'l Des: 2024-031 Owner: SPXS Country: US Constellation: starlink operational
LEOCIRCULAR

Live Position

Loading 3D Globe...

About Starlink 31229

Description loading...

Upcoming Passes

Passes for default location (London). Set your location on the main map for personalized predictions.

Altitude History

Loading altitude history...

Two-Line Element Set

1 58986U 24031X 26104.45237323 .00000519 00000-0 29642-4 0 9990
2 58986 53.1596 130.9268 0001143 82.7351 277.3780 15.30193234121987
Epoch: Apr 14, 2026 • Age: 6 hours

Current Status

Altitude 475.4 km
Velocity 7.63 km/s
Sub-Earth Point 5.37°N, 33.49°E
Launch Date Feb 15, 2024
Age 2.1 years
Type internet

Technical Details

Classification Payload
Mass 730.00 kg
Dry Mass 700.00 kg
Total Mass 730.00 kg
Length 0.30 m
Diameter 4.10 m
Span 29.00 m
Shape Box + pan
Manufacturer SPXS
Bus Type Starlink V2M
Phase Status In Orbit
Owner/State SPXS/US

Most Searched